GFSNGP_925_spd_096.txt.gz
Wind_Speed
1 4 3 6 9 9 11 12 7 6 14 16 10 3 2 2 9 13 15 18 18 16 15 14 19 19 6 8 13 15 18 17 18 19 20 23 24 24 23 23 24 24 25 29
2 5 2 5 9 12 15 15 13 13 15 9 7 3 4 6 8 11 13 16 17 17 17 15 23 19 19 18 11 10 14 15 17 18 19 20 23 25 26 25 25 25 27 29
2 2 6 7 4 5 6 4 2 6 7 14 5 7 5 7 11 11 13 16 17 17 15 20 24 23 17 24 22 26 24 19 12 3 15 21 22 23 26 28 28 29 30 31
2 3 2 6 10 5 4 4 7 10 13 5 11 12 16 14 9 13 14 15 15 12 19 23 22 20 23 24 22 22 22 19 17 14 11 9 2 11 20 25 29 30 31 31
1 1 6 8 3 4 4 8 4 4 10 10 12 12 13 12 13 13 13 12 15 17 19 20 21 18 20 18 18 20 20 18 17 16 15 14 13 12 10 10 8 18 21 23
1 0 3 5 4 10 6 3 14 4 8 8 13 2 4 11 11 13 15 16 16 18 18 22 21 19 19 20 20 21 20 17 16 16 16 16 15 15 15 11 10 8 4 2
2 4 5 4 10 7 2 4 9 11 4 9 5 5 8 9 11 13 16 20 16 18 17 17 16 15 16 17 18 16 17 19 21 19 17 17 15 17 18 17 15 17 18 19
2 3 6 10 2 4 4 12 12 14 13 15 13 12 10 8 9 12 15 18 18 17 18 19 20 17 16 18 16 15 17 21 21 22 23 23 22 21 21 20 22 20 18 20
5 2 7 8 9 8 10 10 13 13 14 11 13 11 10 9 10 14 17 17 16 14 14 17 20 20 17 18 16 14 16 21 22 24 23 24 25 23 22 23 20 19 18 18
4 5 9 9 10 12 11 11 11 11 11 11 13 11 9 10 11 10 16 16 15 15 16 17 19 19 19 17 13 13 14 17 19 22 25 27 26 26 22 18 17 16 16 16
2 5 4 12 9 8 11 11 13 13 13 11 10 10 9 10 9 13 14 15 16 15 14 16 17 21 22 18 13 12 14 13 15 16 18 28 35 29 28 32 22 20 20 20
3 8 3 6 9 10 12 11 11 12 11 14 12 9 9 9 13 13 13 15 15 15 15 17 17 19 20 19 14 11 12 13 14 14 15 17 20 27 35 34 33 32 28 27
3 3 6 6 9 10 11 10 12 13 12 11 13 12 14 13 12 13 16 16 15 16 16 17 18 20 20 17 14 13 13 11 13 14 14 13 15 16 16 23 31 31 29 27
8 4 4 12 6 10 11 12 14 16 16 14 13 14 13 12 13 15 15 14 16 16 17 18 20 23 20 17 16 16 15 14 14 14 16 18 19 20 20 17 16 18 23 24
8 8 5 8 10 10 12 10 10 10 10 12 15 14 13 13 14 14 13 13 14 18 20 21 21 21 16 15 14 13 14 15 16 17 19 20 20 21 21 20 20 19 20 23
2 7 6 8 8 9 10 11 9 9 8 12 13 13 12 12 13 13 15 16 17 17 19 21 20 18 15 12 12 14 15 14 16 18 18 19 19 19 19 19 20 20 22 19
4 5 6 7 8 9 10 8 9 8 10 11 11 9 10 11 12 14 15 15 18 20 20 21 18 16 14 12 12 13 14 15 16 17 17 17 17 18 18 19 20 22 22 20
7 6 6 6 6 7 8 11 11 11 10 10 11 14 16 14 10 11 12 13 16 20 21 19 16 15 14 12 12 12 13 15 15 16 16 17 17 17 18 19 18 19 19 20
7 8 10 10 11 10 10 11 11 10 11 12 15 16 15 13 12 12 13 16 18 16 19 15 14 13 14 12 11 11 12 14 15 15 15 16 17 17 17 18 18 18 18 19
9 9 9 10 11 10 10 10 12 14 12 13 13 13 14 12 10 11 14 18 16 12 13 14 13 14 13 12 10 10 11 12 13 14 14 16 17 17 17 17 17 18 18 17
7 8 10 11 13 13 12 10 11 12 10 11 13 13 13 13 13 11 15 14 16 13 13 14 15 14 12 11 11 11 12 13 14 14 15 15 16 16 16 15 15 15 15 14
8 10 11 13 14 12 10 10 10 9 8 8 8 8 8 8 9 11 12 10 10 11 11 13 14 13 11 11 12 13 14 14 14 14 14 13 13 13 13 12 12 11 11 11
10 10 10 10 11 11 9 9 8 7 8 7 6 6 7 7 7 7 7 9 9 10 11 13 11 11 11 12 13 13 13 13 13 13 12 11 10 10 9 9 9 8 8 8
9 8 9 9 9 7 7 7 7 6 5 4 2 3 2 4 5 6 5 5 7 8 10 10 11 11 11 11 11 11 12 11 11 10 9 8 8 7 6 6 6 6 5 6
9 10 9 8 4 4 6 6 4 3 2 3 4 4 2 3 5 5 6 8 8 8 8 9 9 9 10 11 10 9 9 8 8 7 7 7 7 6 4 3 3 3 4 4
9 9 7 6 8 9 9 9 8 6 4 3 2 3 3 3 3 3 3 3 4 5 7 7 9 9 9 8 8 7 7 7 6 6 5 5 5 5 5 4 4 4 4 4
5 6 6 3 1 1 2 8 9 9 5 3 2 2 1 1 2 2 3 4 4 5 5 5 6 8 8 7 6 5 5 5 6 6 5 4 4 5 7 7 6 6 7 8

GFSNGP_925_spd_099.txt.gz
Wind_Speed
5 3 3 3 3 5 7 10 7 10 14 19 11 15 6 5 10 15 11 13 16 16 15 15 21 23 21 11 12 13 15 13 12 11 11 12 14 16 18 18 18 19 19 19
1 3 4 4 7 10 9 10 13 17 19 15 8 11 1 7 9 15 13 17 17 16 17 16 20 21 25 27 18 8 8 7 7 11 12 12 13 13 14 17 17 17 19 20
2 3 4 5 4 7 7 6 5 10 13 12 11 12 12 13 12 12 10 12 15 15 15 20 21 23 26 28 28 28 23 17 16 12 7 1 12 14 17 17 16 17 17 17
1 2 2 2 8 2 8 8 11 12 9 10 12 13 16 16 13 12 12 13 12 12 19 23 22 23 26 30 23 26 26 24 18 13 12 10 9 9 4 3 15 21 22 22
1 1 5 2 6 5 5 8 13 10 8 10 6 6 11 14 13 13 13 11 15 18 19 21 27 30 30 29 18 29 25 17 16 17 16 14 13 11 8 6 5 8 7 6
1 1 2 4 10 11 5 3 17 17 6 9 9 3 3 10 10 13 17 16 18 18 22 25 25 22 22 20 24 25 18 16 17 17 16 15 14 14 12 11 12 13 18 18
2 2 4 7 14 9 2 4 11 14 10 8 5 6 5 6 10 14 15 19 17 21 23 23 22 21 22 21 22 17 14 13 16 17 17 16 14 15 15 16 19 21 21 20
1 2 2 12 5 5 1 7 9 11 12 14 11 11 11 12 12 13 16 19 19 18 20 21 22 19 18 19 14 14 14 17 19 20 20 18 17 17 17 16 19 20 20 22
3 4 6 11 11 10 10 8 9 8 9 10 10 9 8 10 12 13 16 16 17 16 17 20 20 19 16 15 11 12 15 18 19 20 21 22 22 20 19 18 17 17 18 17
2 7 11 11 11 11 11 12 11 12 11 10 10 9 9 9 9 11 15 17 16 16 18 19 19 18 17 14 10 11 13 14 17 22 21 21 25 25 22 19 19 19 18 17
1 5 2 12 11 10 11 10 11 12 12 11 9 10 9 9 9 13 13 14 16 17 16 17 17 18 17 16 11 11 12 13 14 15 19 25 32 26 27 30 21 19 18 17
3 6 5 6 9 10 10 10 11 10 11 12 11 9 9 9 13 12 13 14 15 16 17 18 18 19 19 17 13 11 12 13 12 11 12 15 18 25 31 29 27 26 23 23
2 3 9 9 10 9 9 9 10 11 12 10 12 11 12 12 13 13 14 16 16 15 15 16 18 19 19 18 15 13 11 10 10 11 11 12 12 12 13 20 26 28 25 21
7 1 6 11 6 8 8 9 11 13 14 12 11 12 12 12 13 14 15 14 15 15 17 17 17 19 17 15 14 15 13 14 12 12 12 12 12 12 12 12 14 15 22 22
7 8 8 8 8 9 9 7 8 9 10 12 13 13 13 13 14 14 13 12 13 16 18 17 18 19 17 14 14 13 12 12 12 12 11 11 12 12 12 13 13 13 11 14
3 7 7 8 8 8 8 8 8 8 8 10 11 11 11 11 12 12 14 15 16 16 16 17 16 15 14 13 11 11 12 13 12 11 11 11 11 12 12 14 14 14 14 12
5 4 4 6 6 8 9 8 8 7 8 9 9 7 8 9 11 12 12 12 13 14 14 16 16 16 15 14 12 10 10 11 13 12 12 11 12 13 13 13 14 13 13 13
8 7 7 6 6 6 7 9 9 9 9 9 10 11 12 11 10 10 10 9 11 16 18 17 16 15 15 14 12 10 10 10 11 11 10 11 11 10 11 11 11 11 11 13
9 9 9 10 9 10 10 9 9 9 10 11 13 12 11 11 10 11 11 15 15 15 18 16 14 14 13 12 10 9 9 9 10 10 10 10 10 10 10 10 11 10 10 10
10 10 10 12 11 10 10 9 9 10 9 10 10 10 10 9 8 9 13 14 12 9 12 13 12 13 12 11 9 9 9 9 9 9 9 9 9 10 11 12 11 10 10 9
10 11 12 12 12 13 12 11 13 13 11 10 12 11 11 11 9 6 8 10 12 11 10 12 14 11 11 10 10 10 10 10 10 9 9 9 9 10 10 9 9 9 8 8
8 10 12 12 13 12 10 10 10 9 9 8 8 7 7 7 7 10 12 8 8 11 10 11 13 13 11 10 11 11 11 11 10 9 9 8 8 8 8 8 7 8 7 7
9 9 8 8 8 8 8 8 8 8 9 9 9 8 8 7 8 7 6 9 8 10 10 12 12 11 11 12 12 12 11 11 10 10 9 8 7 6 6 6 6 6 5 4
9 8 8 8 7 5 4 4 5 5 5 5 4 4 3 4 5 6 6 6 7 8 10 10 11 11 11 11 10 10 10 9 9 8 7 6 5 5 5 5 4 3 3 3
9 9 8 7 4 2 4 5 4 3 3 3 3 3 3 4 3 3 5 6 7 8 8 8 9 9 10 10 9 8 7 6 6 5 5 4 4 3 2 1 0 1 2 1
8 6 5 3 3 4 4 6 6 5 4 3 2 3 3 3 2 2 2 3 4 4 5 6 7 8 8 7 6 6 6 5 4 4 3 3 2 2 2 2 3 3 3 3
4 3 3 2 1 1 2 2 5 6 5 4 2 2 1 1 1 2 3 4 4 4 4 4 5 7 8 6 4 4 4 4 4 5 4 3 2 3 4 4 4 4 5 6

GFSNGP_925_spd_102.txt.gz
Wind_Speed
11 10 8 8 7 5 2 5 4 10 14 15 14 15 16 9 12 13 18 18 17 17 15 15 20 19 24 9 17 16 16 15 15 13 13 13 12 13 13 14 14 15 16 16
9 7 5 3 1 4 3 4 6 8 9 17 18 20 19 15 14 13 16 16 16 17 17 16 21 21 20 23 26 22 19 15 10 13 12 12 11 11 11 12 13 14 15 16
4 1 1 3 7 6 2 5 7 9 12 14 13 16 16 14 13 13 13 13 12 13 16 21 21 21 20 24 23 27 23 21 20 15 12 10 8 8 9 11 12 13 13 14
3 2 3 6 6 6 4 11 16 15 8 11 11 11 13 12 12 13 12 14 13 12 20 24 23 23 23 26 22 25 25 23 19 14 15 17 14 10 7 3 5 7 8 11
1 4 6 8 8 9 8 7 16 17 4 6 9 8 12 11 10 11 11 10 14 15 16 22 23 24 21 20 22 24 25 23 19 17 20 19 16 13 11 9 11 12 10 11
0 2 3 7 11 10 8 2 15 14 11 8 8 1 5 10 11 11 15 19 20 21 21 23 24 22 22 24 25 28 23 25 20 20 21 19 16 15 15 15 16 17 20 18
2 3 5 11 15 14 4 6 10 10 11 13 6 5 4 7 10 15 15 18 18 20 23 24 22 20 25 27 25 17 20 25 22 18 15 19 17 16 16 17 19 21 22 22
1 1 2 16 7 6 5 9 9 10 9 11 10 8 8 8 10 12 15 17 18 19 20 21 22 20 21 21 15 15 20 20 19 17 19 18 19 16 14 15 17 17 18 19
5 3 5 7 10 9 11 8 9 8 8 9 9 9 9 9 10 12 16 17 18 17 17 19 20 20 20 19 15 15 17 18 16 16 18 20 18 17 15 15 14 14 14 14
4 6 9 8 10 10 10 10 10 10 9 8 9 8 9 9 9 11 15 16 16 15 15 17 18 18 16 15 13 13 14 16 17 20 20 19 21 18 16 15 14 14 13 13
4 7 7 11 10 9 10 10 10 9 9 8 7 9 8 8 9 12 13 14 14 14 15 17 17 17 18 17 13 12 12 12 13 15 18 23 29 23 23 25 16 15 15 14
2 4 6 6 8 8 9 9 8 8 8 10 9 8 8 8 11 12 13 14 14 14 15 17 17 18 18 17 13 10 10 11 11 10 10 12 15 21 28 27 25 23 21 18
2 8 10 8 8 8 8 7 8 8 10 8 10 9 9 9 11 11 12 14 15 15 14 15 15 17 18 17 15 13 11 8 8 8 8 9 9 11 14 19 26 26 23 22
6 7 6 6 4 5 5 6 7 9 10 10 10 10 9 9 10 11 12 12 12 13 14 15 16 18 17 15 13 12 11 12 10 10 9 10 10 10 9 9 11 14 20 21
7 9 8 7 5 5 5 3 4 6 7 9 10 9 9 10 11 12 12 10 11 13 15 15 16 17 17 14 14 14 11 11 10 10 10 10 10 10 11 11 11 11 11 15
5 7 7 5 5 6 5 5 6 6 7 7 8 8 9 9 9 10 12 14 14 14 15 15 16 16 16 14 11 10 11 11 10 9 9 10 10 10 10 11 12 13 14 13
6 3 3 4 4 5 6 6 7 6 7 7 7 7 7 7 8 9 10 10 10 11 12 13 14 14 14 13 10 9 8 9 9 9 10 10 10 11 11 11 12 13 14 14
8 7 5 4 4 5 6 8 8 8 8 7 7 9 10 9 8 7 8 8 8 11 14 13 14 12 12 12 10 8 8 8 8 9 9 10 10 10 10 10 10 10 11 12
8 9 8 8 8 8 9 9 9 9 8 7 8 10 8 8 7 8 8 8 9 10 15 14 13 12 12 12 9 8 8 7 8 9 9 9 9 9 9 9 9 9 9 9
10 10 10 11 10 10 10 9 8 8 7 7 7 7 7 6 5 5 6 11 11 9 10 13 10 10 11 11 10 8 7 7 8 8 7 7 7 8 9 10 9 8 8 8
10 11 11 11 11 10 9 8 8 8 7 7 6 6 5 5 6 6 4 6 10 11 10 11 13 11 10 10 9 8 7 7 7 6 6 7 7 7 7 7 7 6 6 6
11 11 11 10 10 9 7 7 7 6 5 4 4 3 1 3 3 5 7 7 7 10 9 9 10 11 10 10 9 8 8 7 7 6 6 6 5 5 5 5 5 5 5 5
11 11 10 9 8 8 7 6 5 5 5 4 4 4 4 5 6 6 4 7 6 8 7 8 10 10 10 8 8 8 8 8 7 6 6 5 4 4 4 4 4 4 4 3
10 9 8 7 6 5 5 4 4 3 4 3 3 4 4 4 3 5 4 5 6 7 6 7 9 9 9 7 7 7 6 6 6 5 5 5 4 3 3 2 2 2 2 2
8 7 6 4 2 1 1 1 1 0 1 2 3 3 3 4 3 2 3 3 5 5 4 6 8 8 7 7 6 6 5 5 4 4 4 3 3 2 2 1 1 1 2 2
7 5 4 3 2 3 3 4 6 5 4 4 3 2 2 2 2 2 3 3 4 4 4 4 5 6 6 6 5 4 4 4 4 4 3 2 2 2 2 2 3 3 3 4
5 4 4 3 2 2 3 4 6 6 4 4 4 2 2 1 2 2 3 4 4 5 5 5 5 6 6 6 5 4 5 5 5 4 4 3 3 3 3 3 3 4 4 5

GFSNGP_925_spd_105.txt.gz
Wind_Speed
5 11 12 11 10 6 4 2 3 9 10 14 15 13 13 14 15 16 18 20 20 18 17 27 27 27 26 23 6 16 15 13 15 15 16 15 15 17 17 17 16 15 14 12
12 10 10 10 6 2 2 3 6 8 10 13 14 14 16 16 15 16 16 17 18 18 19 21 25 26 25 25 23 22 25 20 11 14 12 11 12 13 14 14 14 14 13 13
4 5 7 7 9 6 5 19 12 8 12 14 15 15 14 13 12 13 15 14 14 15 13 19 25 26 26 25 24 27 25 22 22 18 15 11 10 12 12 12 12 8 8 11
4 4 4 7 10 7 16 18 15 14 10 10 11 11 11 12 12 11 11 13 12 13 20 20 26 26 25 28 27 28 30 27 23 21 20 16 15 14 11 11 16 13 8 10
1 4 13 8 9 9 8 10 16 14 13 4 9 7 14 13 10 10 10 10 13 17 20 23 25 25 23 24 25 25 33 27 21 22 23 23 22 18 14 17 17 15 12 11
2 4 3 7 16 14 8 4 15 14 13 10 7 1 5 10 10 10 12 13 15 19 20 26 30 23 23 26 22 30 32 23 19 20 27 26 22 23 21 24 21 22 22 19
2 2 7 12 21 20 4 4 8 11 11 14 7 5 4 8 9 13 14 17 17 19 21 22 22 24 24 23 27 25 19 18 19 21 25 22 22 29 25 24 25 26 28 28
3 2 4 18 8 6 5 7 8 10 10 10 9 7 8 8 9 13 15 19 17 16 19 21 23 22 23 24 21 21 22 19 21 27 27 23 25 21 18 16 17 17 20 19
6 3 4 7 9 8 7 7 9 9 8 7 7 6 6 7 9 11 15 14 15 16 16 19 21 21 22 21 17 17 19 19 19 24 22 25 23 21 20 17 17 17 16 16
5 5 7 8 9 10 9 9 9 9 9 9 8 7 7 8 9 11 14 15 15 15 17 19 19 20 20 18 14 13 12 15 17 26 28 26 24 24 24 18 15 15 14 16
5 7 8 8 8 8 10 10 9 8 9 9 7 8 8 9 10 12 13 14 15 16 17 19 19 20 20 19 16 12 12 14 15 17 19 24 30 26 23 27 23 17 19 20
3 3 7 6 7 8 8 8 8 9 8 10 11 10 10 9 12 13 14 15 16 17 17 18 19 20 21 20 17 15 13 13 13 12 12 13 16 21 28 28 27 25 23 22
3 7 10 8 6 7 6 7 8 9 10 9 11 10 10 10 13 13 14 16 16 16 16 17 18 20 20 19 17 16 14 13 12 12 12 11 11 11 13 19 27 25 24 22
5 6 5 4 4 4 4 5 5 8 9 10 9 9 10 10 11 13 14 14 15 16 17 16 17 20 19 18 16 14 13 14 12 11 11 11 10 10 10 11 13 15 20 21
6 7 8 6 4 3 3 3 3 6 7 8 9 10 10 10 11 12 14 14 13 15 18 18 18 19 18 18 13 15 13 12 11 11 11 10 10 10 10 11 12 12 10 13
5 6 6 5 4 4 4 4 5 5 6 7 8 9 9 9 10 11 13 14 15 16 16 17 18 20 19 17 15 12 12 12 11 9 9 9 9 10 10 11 11 11 10 10
5 5 3 4 4 5 6 6 7 7 7 7 8 9 8 7 9 11 12 12 12 14 14 16 17 17 17 16 16 11 10 10 10 9 9 9 9 10 10 10 10 10 10 10
7 7 5 5 5 6 6 7 7 8 8 7 7 8 10 10 10 11 11 11 9 10 15 15 16 15 15 14 14 10 9 9 9 9 9 10 9 9 9 9 9 9 9 10
9 9 9 9 9 9 9 9 9 8 7 7 7 8 7 7 8 8 9 10 12 11 16 16 14 14 14 14 13 9 9 8 8 8 8 8 9 9 8 8 8 7 7 7
10 10 11 11 11 10 10 9 8 8 7 6 6 6 6 6 6 6 5 7 10 10 12 14 14 12 12 12 12 9 8 8 8 7 8 7 7 7 7 8 7 6 6 6
10 10 11 11 10 10 9 7 6 6 5 5 5 5 5 5 7 10 6 6 10 11 10 10 13 13 12 11 10 9 8 7 6 6 6 6 5 5 5 5 5 5 5 5
10 11 10 9 9 8 6 5 5 4 4 4 5 4 4 3 3 1 5 5 8 10 9 9 10 11 10 11 8 8 8 7 6 6 6 5 5 4 4 4 4 4 4 4
10 10 9 7 6 6 5 4 4 3 3 2 3 5 5 5 6 8 3 9 7 8 7 7 10 9 9 7 7 6 6 6 5 5 5 4 4 3 3 3 3 3 3 3
10 9 8 6 6 5 4 3 2 2 1 1 2 5 6 7 3 3 3 3 6 4 4 7 9 9 9 7 6 6 6 5 5 4 4 4 3 2 2 2 2 2 2 3
9 8 7 5 4 4 2 3 3 5 3 3 2 3 4 4 5 5 4 4 4 7 5 6 8 9 7 7 6 6 5 5 5 4 4 4 3 3 3 3 3 3 3 3
8 5 4 1 3 3 4 4 7 7 6 6 5 2 4 3 4 4 4 4 5 6 6 6 6 7 7 7 6 6 5 6 5 5 5 5 4 4 4 4 4 4 4 4
4 2 3 3 3 3 5 7 8 9 5 5 6 4 4 4 4 4 4 5 6 7 7 6 7 6 7 7 7 6 6 7 7 7 7 6 5 5 5 5 5 5 5 5

GFSNGP_925_spd_108.txt.gz
Wind_Speed
9 17 12 7 7 6 6 3 4 12 18 17 15 14 14 14 14 15 16 18 18 16 15 22 25 32 32 32 31 28 14 3 7 11 17 19 15 22 20 18 20 19 16 19
9 12 21 10 4 10 15 18 18 13 11 14 13 13 16 15 15 14 13 14 16 18 18 20 23 30 30 29 30 29 28 27 23 9 12 13 21 23 20 20 18 18 17 16
10 12 11 11 16 17 19 19 12 11 9 10 12 15 15 14 13 12 11 11 13 14 15 21 22 28 26 28 29 32 30 31 32 26 20 14 16 20 19 16 17 17 16 16
2 1 4 6 18 21 22 20 17 14 12 9 11 10 12 11 11 11 11 11 11 14 20 20 23 23 24 26 31 32 32 33 33 31 28 24 15 18 17 16 16 15 14 13
2 2 10 12 16 14 10 14 18 15 15 7 9 6 13 11 10 10 9 7 10 14 17 22 23 21 24 26 30 34 31 28 32 32 28 29 27 18 17 21 20 19 16 14
2 4 1 6 20 19 14 7 15 14 15 14 4 3 4 10 9 11 18 15 16 18 19 23 25 25 27 28 33 28 30 29 29 30 30 31 30 22 22 29 28 26 27 25
4 3 5 15 22 15 3 4 7 12 12 14 8 5 4 7 8 12 14 19 16 18 20 21 23 25 26 24 25 26 24 26 30 23 26 28 29 24 19 32 28 29 34 33
6 5 4 22 6 6 2 3 7 9 11 10 9 8 8 6 6 11 13 16 19 19 21 23 25 25 24 22 21 21 25 27 28 25 27 28 22 20 20 20 26 22 24 30
5 3 4 7 10 8 9 9 9 10 10 8 8 8 6 8 10 13 17 18 19 19 20 22 25 27 24 24 17 19 22 24 24 27 27 29 28 26 21 24 20 20 23 21
6 6 8 8 9 9 9 8 7 8 9 8 8 9 9 10 10 14 17 18 18 19 21 22 24 25 25 25 20 17 16 17 20 26 29 31 27 30 30 25 20 22 19 19
5 8 9 8 7 7 8 8 9 8 10 11 10 11 10 10 12 15 17 18 19 20 20 22 23 24 25 25 23 18 17 17 15 17 22 25 33 29 28 31 24 21 21 22
2 4 7 5 5 6 7 8 9 10 10 13 14 11 13 11 14 15 16 17 18 19 20 20 21 22 25 24 22 20 17 16 17 14 13 16 19 25 28 28 27 27 25 24
4 7 9 6 4 4 6 8 10 11 12 11 14 13 14 14 15 15 16 16 18 18 18 18 19 22 25 22 21 18 19 17 16 16 16 13 10 13 16 22 25 25 24 21
6 6 5 1 3 3 4 6 8 12 13 14 14 14 14 14 15 16 17 17 16 17 18 18 18 21 22 24 20 19 17 16 16 15 14 14 14 14 14 14 13 15 20 20
5 5 6 4 5 3 5 5 8 9 11 12 14 13 13 13 14 15 16 16 14 16 17 17 17 20 21 21 16 16 16 16 12 13 13 12 12 13 14 15 15 14 13 14
6 5 6 5 6 7 8 9 9 8 10 11 13 14 12 11 13 14 14 14 16 17 17 18 18 19 17 16 18 13 12 14 13 13 12 13 13 13 14 15 15 14 13 17
6 5 4 6 7 8 9 10 10 10 11 12 12 11 11 11 12 13 13 13 10 15 16 15 18 19 22 16 17 13 12 12 12 12 12 11 11 11 11 12 12 12 12 15
11 9 9 9 8 7 8 11 11 11 10 9 9 10 13 13 11 11 11 11 12 12 18 18 18 16 17 16 16 13 12 10 10 10 10 11 10 10 10 11 10 10 10 12
11 11 12 12 12 12 11 10 10 9 8 7 8 9 8 7 7 7 7 9 11 10 14 17 17 15 15 16 18 11 12 12 11 12 10 9 9 10 10 9 10 10 10 11
13 14 14 15 13 12 12 10 9 8 7 6 6 7 7 8 9 9 8 6 10 10 11 12 14 13 15 12 15 12 11 10 10 8 9 9 9 8 9 10 10 10 9 9
14 14 14 12 12 13 11 9 8 8 7 7 6 5 5 5 6 7 11 3 7 13 12 11 14 15 12 16 13 13 13 12 11 10 10 9 8 8 8 9 9 9 8 8
11 11 11 11 10 9 7 6 6 5 4 4 5 6 9 10 5 2 5 7 9 13 12 11 13 12 12 15 12 12 12 12 11 11 11 11 10 9 7 7 7 7 6 6
11 11 10 9 7 7 5 3 3 2 0 1 2 5 7 9 5 7 2 8 9 9 9 13 15 9 12 11 10 10 10 10 10 10 8 10 9 9 9 6 7 6 6 7
11 10 8 7 7 7 8 7 7 6 4 5 3 5 5 9 9 6 5 4 9 10 7 7 13 8 11 10 9 9 9 8 9 9 8 6 6 6 5 4 5 5 3 3
11 9 8 8 9 8 5 7 6 10 8 6 6 3 0 3 4 7 7 5 8 7 7 6 7 11 10 8 8 8 9 5 8 5 7 7 6 5 5 5 3 5 3 2
11 10 9 5 2 2 4 3 6 6 5 6 2 4 1 1 3 4 4 5 5 5 6 8 6 9 7 9 9 8 6 8 6 6 8 7 5 5 4 3 5 5 4 4
6 3 5 5 5 2 2 5 5 7 9 7 6 3 2 3 4 4 5 6 6 8 9 8 8 6 8 7 9 8 8 8 8 6 8 7 6 6 6 5 5 6 6 6

GFSNGP_925_spd_111.txt.gz
Wind_Speed
13 10 14 10 15 9 9 7 7 8 17 12 14 14 14 13 13 15 16 15 14 15 15 24 28 28 28 30 32 31 27 29 25 17 4 19 25 28 26 23 19 18 18 18
13 16 20 15 22 19 19 15 10 13 10 9 12 12 15 15 16 15 14 14 15 15 18 22 26 28 26 30 34 32 31 29 29 27 22 9 25 28 27 24 22 21 17 18
4 11 10 13 19 21 22 20 12 10 6 7 13 15 15 14 14 13 12 12 13 14 18 23 26 25 27 25 34 32 30 29 31 34 32 30 21 18 17 20 23 20 22 21
2 6 5 7 15 21 24 19 18 15 10 11 14 13 13 12 12 12 11 9 10 15 22 24 26 27 24 30 27 31 30 30 32 34 33 33 31 28 18 18 17 19 17 18
3 3 5 11 14 9 5 12 18 15 13 8 8 5 13 14 11 10 10 11 12 18 19 23 27 27 26 28 29 30 31 29 29 36 34 32 33 33 28 27 26 21 16 15
1 4 4 6 19 14 5 7 14 14 14 15 6 5 4 9 9 11 14 19 15 19 21 25 27 24 25 27 28 28 29 25 31 36 33 30 29 33 36 28 37 28 32 26
5 4 3 14 19 13 3 3 7 10 11 12 7 4 2 4 4 7 12 15 16 20 22 24 26 25 23 23 25 25 26 28 30 31 29 25 27 33 31 26 37 31 35 32
4 4 4 20 7 6 4 6 8 8 9 9 9 6 3 3 5 13 16 19 20 20 22 25 27 26 25 23 19 22 27 28 30 29 29 26 26 24 25 24 24 24 30 29
5 4 4 8 10 10 8 6 6 7 7 7 6 6 8 7 9 14 17 19 20 20 21 24 27 27 24 26 19 17 23 28 29 29 28 27 27 26 25 23 18 20 20 22
3 5 8 8 8 9 7 5 6 8 10 8 9 10 10 9 10 14 18 19 20 19 20 21 23 26 26 27 24 20 19 19 25 27 28 27 27 28 25 23 20 17 16 18
5 8 9 7 7 6 8 8 10 10 11 10 10 11 10 10 12 15 16 18 20 20 19 20 21 24 27 26 23 21 20 20 14 19 20 23 29 26 25 28 21 19 19 21
2 5 5 5 5 6 6 7 9 9 10 15 14 11 15 13 16 16 16 18 18 19 19 19 21 24 28 26 23 22 19 19 20 14 15 17 19 23 26 25 24 25 24 24
4 8 10 7 3 3 6 7 14 13 15 11 16 16 17 15 17 18 19 17 18 18 19 20 22 24 26 25 21 21 20 19 18 17 16 11 15 17 16 20 22 23 24 23
7 8 6 5 4 4 6 14 19 18 17 17 16 16 17 16 15 16 17 16 16 17 19 19 22 25 24 23 19 20 19 17 17 16 16 16 16 15 16 16 16 19 21 20
8 9 8 7 6 7 13 17 12 10 13 15 18 14 14 14 14 14 14 14 14 16 17 19 22 25 22 22 21 18 19 18 16 15 14 13 14 14 15 15 17 18 16 16
9 7 6 7 9 10 11 10 11 9 13 14 13 15 13 15 15 14 14 12 15 17 18 20 21 21 21 21 20 18 16 15 15 15 14 14 13 13 13 13 13 16 18 15
7 7 8 9 9 9 9 11 13 12 13 12 11 10 12 11 11 12 13 12 13 16 17 17 19 20 17 18 17 18 15 14 13 13 14 14 14 13 12 15 15 17 17 15
14 14 15 14 9 9 10 14 14 12 10 8 9 10 12 11 9 9 11 10 7 11 16 19 15 16 16 19 14 15 15 12 14 11 11 13 13 12 13 12 13 13 14 15
19 17 18 18 18 17 15 13 12 10 9 8 8 9 8 8 8 7 8 10 13 13 16 12 17 13 15 17 16 15 13 13 11 12 11 10 10 13 13 13 13 12 11 11
17 20 21 19 18 16 14 13 10 10 8 7 6 6 6 8 10 12 4 9 13 13 10 13 19 10 14 16 15 14 14 14 14 13 12 12 11 12 12 12 11 11 10 10
15 17 16 17 17 15 13 10 10 10 8 7 8 8 9 10 7 8 10 5 12 11 8 15 16 11 13 14 14 12 12 13 14 15 14 14 10 9 9 8 8 9 10 9
16 17 17 17 16 14 9 9 8 7 6 6 5 5 7 10 6 2 5 8 9 8 9 15 13 10 11 12 11 12 12 11 12 10 11 11 11 11 10 9 8 8 7 6
17 16 15 14 13 12 7 5 4 3 4 2 1 3 3 10 4 2 6 4 9 9 9 10 12 9 9 11 10 10 11 9 10 11 10 9 9 8 7 7 6 5 4 3
16 14 13 10 10 9 8 7 6 6 5 6 6 1 4 3 6 4 5 5 7 9 9 5 9 11 9 8 9 9 11 8 11 6 8 7 7 5 5 3 4 4 3 3
16 13 12 10 10 12 12 10 9 11 13 12 12 9 3 3 2 3 5 4 7 6 8 7 8 9 7 9 11 8 9 9 8 6 9 5 7 5 5 5 4 4 2 2
16 14 12 11 9 4 7 13 5 7 2 4 8 10 7 3 2 2 6 7 8 6 7 8 8 9 6 10 11 7 7 8 8 6 8 10 6 5 6 3 4 3 4 5
14 11 14 13 10 8 6 2 4 5 4 4 6 4 3 3 2 3 4 4 5 7 8 8 9 10 10 8 8 7 8 8 9 9 7 7 5 5 7 5 5 7 9 10

GFSNGP_925_spd_114.txt.gz
Wind_Speed
2 3 13 10 8 10 12 9 4 8 8 8 10 13 11 11 14 18 19 18 17 17 16 25 29 30 33 34 32 32 32 32 30 30 22 10 9 24 29 31 33 31 28 25
12 17 22 20 24 20 16 13 13 13 9 8 11 11 14 15 15 16 14 18 16 16 19 22 27 29 30 32 34 31 32 32 32 30 31 21 15 2 23 31 30 27 25 23
2 7 1 15 16 21 20 18 7 5 6 8 14 14 13 13 14 12 12 14 14 14 19 24 28 30 31 32 32 32 31 34 32 34 30 32 25 23 17 12 16 19 19 19
2 7 6 4 9 19 22 16 14 10 10 10 14 11 13 12 10 12 10 12 12 18 22 24 26 28 28 31 33 34 34 31 34 31 30 27 27 33 29 25 21 19 16 13
1 6 7 8 9 6 5 11 11 10 4 8 9 6 12 12 10 10 11 13 16 19 20 24 28 27 27 31 31 32 33 33 32 33 31 30 30 33 35 36 34 30 27 20
1 4 3 4 17 11 6 8 11 11 12 11 3 4 5 8 8 13 14 16 18 21 23 28 29 26 24 28 31 30 28 30 31 29 30 26 25 27 33 39 31 35 32 32
5 4 4 13 17 6 3 3 7 9 10 12 7 4 1 5 8 16 17 20 20 21 22 24 26 25 26 25 22 25 27 29 29 29 29 25 25 29 29 30 30 26 31 34
3 4 3 18 4 5 5 6 8 8 8 10 7 6 9 7 9 17 19 21 21 20 22 24 25 25 24 25 23 22 29 28 28 28 27 25 27 26 26 24 27 22 26 24
5 3 4 6 10 8 5 5 5 7 5 7 9 9 9 9 11 17 20 20 20 19 19 23 25 26 24 27 25 22 23 27 26 28 28 28 29 26 26 25 20 20 21 20
3 4 8 7 8 7 6 6 8 9 11 11 11 10 10 10 11 14 17 17 17 18 19 22 26 26 26 27 24 22 21 21 25 24 26 28 25 26 26 24 22 21 18 18
4 7 8 7 7 5 8 10 11 13 13 11 11 10 10 9 12 14 14 16 17 17 18 20 24 26 26 26 24 21 20 20 17 21 22 22 25 27 24 28 23 18 18 20
2 7 5 5 6 6 9 10 10 11 12 15 15 10 13 11 13 14 15 15 16 17 17 19 22 25 25 24 24 19 17 18 18 14 17 18 17 20 23 23 25 25 22 23
3 6 10 7 5 8 10 11 15 15 14 10 14 15 14 12 12 13 15 15 17 16 16 18 20 23 24 21 23 21 17 19 18 16 14 10 17 17 16 18 22 23 24 22
8 9 7 4 3 8 17 18 20 19 18 16 14 14 13 12 12 13 14 13 13 14 16 18 20 23 23 20 18 20 18 16 15 14 13 12 12 12 13 15 16 19 20 21
7 7 8 12 13 16 18 17 12 10 12 13 15 12 12 10 10 10 11 13 14 14 17 21 22 23 22 20 17 17 16 16 14 13 12 10 10 11 11 13 15 14 13 15
8 9 10 12 10 10 11 10 11 8 10 9 12 11 10 8 8 11 10 12 16 17 18 20 21 21 20 18 17 16 14 13 12 12 12 10 10 11 10 11 14 15 15 13
11 8 9 7 8 9 10 12 11 10 10 10 8 6 6 6 8 9 11 6 11 13 16 19 19 19 18 16 17 15 13 12 11 11 11 11 8 10 12 13 14 15 14 12
7 9 10 13 11 10 10 12 11 10 9 7 7 7 8 8 6 6 8 9 9 11 13 17 21 15 15 15 16 14 11 12 10 10 10 9 8 7 10 10 10 11 11 11
17 17 17 17 17 16 13 12 11 10 9 8 8 8 6 5 5 3 4 8 11 11 11 16 19 11 12 14 14 14 12 11 12 11 8 9 10 9 9 8 8 8 8 9
17 19 19 17 15 15 14 13 13 11 9 6 5 4 3 4 6 5 7 8 10 9 9 15 14 10 10 13 13 13 12 12 12 12 10 9 8 8 8 8 7 7 7 7
14 16 17 18 16 14 14 13 13 12 9 7 6 4 4 5 1 3 5 3 7 7 8 13 10 10 11 11 11 11 11 11 12 12 11 11 9 8 7 7 7 7 6 6
18 18 19 19 18 16 13 12 11 10 9 6 3 1 1 3 2 3 2 2 5 5 7 11 8 9 9 10 11 9 10 11 10 9 9 9 8 8 7 6 5 5 4 4
20 21 20 18 17 14 12 10 9 7 6 6 3 2 3 1 3 7 8 4 4 6 7 5 8 8 7 8 10 9 8 9 8 6 7 7 7 6 5 4 4 3 2 1
21 19 18 15 14 13 12 11 10 10 7 7 8 5 7 5 2 2 3 3 2 4 4 5 6 7 7 8 9 7 7 6 7 5 8 6 5 6 5 4 5 3 1 1
20 19 17 16 15 14 10 8 8 9 12 13 13 12 12 9 8 5 4 5 5 5 6 6 7 6 7 8 10 6 5 6 7 5 7 8 7 4 5 5 5 7 6 4
19 17 17 16 15 13 13 13 11 7 7 7 9 14 13 12 8 7 5 4 5 6 6 7 6 6 7 8 7 6 6 7 7 6 7 8 7 5 5 4 6 7 7 8
17 13 12 13 14 12 9 11 13 9 5 3 3 6 9 9 8 8 7 6 7 8 8 7 8 8 9 8 7 8 8 8 9 9 8 8 8 8 8 9 7 7 8 8

GFSNGP_925_spd_117.txt.gz
Wind_Speed
20 16 20 16 4 10 14 9 5 5 6 9 11 12 14 13 13 17 18 18 18 15 13 24 31 30 30 31 32 33 31 34 34 31 32 29 22 15 7 22 29 32 31 31
6 12 25 23 23 18 21 15 11 10 9 8 9 9 12 13 13 15 16 17 16 16 20 23 25 28 29 30 30 33 36 33 33 35 35 33 33 24 18 14 4 24 27 27
4 5 7 14 16 16 16 16 5 6 5 6 9 12 13 11 12 13 14 13 14 14 19 22 24 24 26 27 29 31 32 35 38 35 34 34 32 35 34 28 20 15 15 15
1 2 6 2 11 10 20 15 12 12 8 7 11 11 11 12 11 11 12 11 12 17 20 23 24 26 23 30 29 30 31 33 37 36 32 33 35 31 33 34 32 31 25 16
2 5 5 4 8 6 7 9 12 8 8 8 8 7 11 12 12 10 11 15 16 18 21 21 24 23 23 27 31 31 31 31 32 33 34 34 34 33 29 30 37 35 28 31
2 3 2 4 12 9 6 5 9 9 9 6 5 3 4 10 10 12 13 14 17 19 19 21 25 24 24 27 28 30 29 28 31 32 30 31 31 31 30 28 30 31 33 35
4 3 3 11 12 4 1 1 5 7 9 9 6 3 6 6 10 16 16 18 16 16 18 23 27 25 26 28 28 30 29 32 34 32 30 29 27 28 27 30 29 25 30 34
3 4 3 14 2 3 6 5 5 7 7 8 10 8 8 6 8 14 15 17 19 18 21 25 27 26 26 27 26 24 34 34 33 31 30 30 29 29 29 27 26 26 26 27
5 3 4 6 10 7 4 4 3 5 10 10 8 7 7 7 9 12 13 15 18 18 19 24 27 27 25 26 27 25 24 31 31 30 28 30 30 31 28 27 23 22 22 24
2 4 7 7 6 6 9 7 7 9 10 9 9 8 7 7 8 11 15 17 17 17 19 22 26 28 27 27 23 23 21 21 25 26 26 26 27 27 28 25 22 21 21 20
4 6 7 8 5 6 8 9 11 11 10 8 9 8 8 7 11 13 14 16 17 18 18 21 24 27 28 28 25 21 20 19 20 23 23 21 24 26 25 29 25 20 22 23
2 7 5 5 5 7 7 7 7 10 9 11 11 8 11 10 12 12 14 16 17 18 19 22 25 27 27 26 25 21 19 19 19 18 18 19 17 17 19 23 25 27 24 22
3 4 9 9 7 8 9 8 11 12 11 8 11 13 13 12 12 13 15 16 17 17 17 20 23 26 25 24 24 21 22 21 20 20 17 16 17 18 18 16 17 22 23 23
11 11 6 5 5 11 15 14 14 15 13 12 12 12 12 11 11 13 14 13 13 15 19 20 22 25 23 22 20 21 20 19 18 16 15 14 14 14 14 15 17 19 18 17
4 5 6 13 15 12 14 13 10 8 9 11 11 10 10 10 11 11 11 12 12 15 18 20 22 23 21 19 18 18 19 18 16 14 12 12 13 12 10 12 15 16 16 17
10 10 10 12 10 8 9 7 8 7 8 8 9 8 8 9 10 9 8 13 15 16 17 20 19 20 18 17 17 15 16 15 15 14 13 11 12 13 12 13 15 16 18 18
11 7 8 8 8 6 5 7 8 8 8 7 6 5 6 7 8 8 10 10 11 12 14 19 20 16 15 15 15 14 13 12 11 12 12 9 7 9 10 11 13 14 14 14
6 7 9 10 9 9 9 10 10 9 9 8 7 7 8 8 6 6 7 8 9 11 14 18 18 14 13 13 14 13 12 11 11 10 11 9 6 4 6 8 9 10 10 11
12 15 15 14 14 14 12 11 11 12 11 10 9 9 8 7 4 1 1 6 11 12 14 17 15 11 11 13 13 13 12 11 10 10 7 7 6 5 5 6 6 7 8 9
15 15 18 16 15 15 14 13 14 13 10 8 7 6 5 3 2 1 3 4 8 9 11 15 13 11 11 12 13 13 12 11 11 11 9 5 5 5 5 5 5 5 5 6
14 17 18 18 15 14 15 15 13 12 9 6 5 5 1 1 3 2 5 4 7 9 9 12 11 10 10 11 11 11 11 11 11 10 9 9 6 4 4 4 4 4 3 3
17 17 18 19 19 17 13 11 10 11 9 8 6 4 3 1 2 3 5 6 7 8 9 8 9 10 10 10 11 11 10 10 9 8 7 7 6 6 5 4 4 4 4 3
19 20 19 19 18 15 13 11 10 9 8 7 5 3 4 2 3 5 9 7 7 7 7 6 8 10 10 10 12 12 9 9 8 7 9 9 7 6 5 5 5 5 5 4
19 19 18 15 13 12 11 12 11 9 7 6 8 6 7 7 5 5 6 8 6 6 7 7 8 9 10 10 11 12 9 7 8 8 9 9 9 7 5 5 5 5 6 7
21 19 17 16 14 14 10 7 8 9 10 12 13 13 15 15 13 7 7 8 8 9 10 10 11 12 12 12 11 12 10 9 10 10 9 11 11 9 7 7 6 8 7 7
20 18 19 17 15 12 10 8 10 10 10 13 12 12 14 16 15 10 9 10 10 10 12 11 12 12 11 11 12 12 12 12 12 12 11 11 11 10 9 8 8 9 8 7
16 15 14 13 13 11 10 10 13 15 12 9 9 7 8 7 11 11 11 12 12 12 12 13 13 13 13 13 13 13 13 14 14 15 13 12 12 12 12 12 12 10 10 9

GFSNGP_925_spd_120.txt.gz
Wind_Speed
5 17 14 17 11 10 12 7 4 4 5 8 10 10 11 10 12 17 18 19 17 16 16 24 28 31 30 30 32 31 32 34 34 31 32 33 32 34 28 21 14 7 20 25
3 3 13 20 21 17 16 13 11 11 7 6 6 7 11 12 14 16 16 17 17 17 22 26 28 27 32 32 31 31 30 30 32 34 34 34 34 34 33 33 28 20 15 12
3 11 5 8 15 15 15 16 5 5 4 4 8 13 14 13 13 15 16 15 16 16 21 26 27 26 27 30 29 29 30 32 33 32 32 34 34 34 37 35 34 33 30 23
3 2 5 1 7 9 18 13 10 9 6 6 11 12 12 13 12 12 14 16 14 19 23 24 23 26 23 33 31 31 32 31 33 32 31 31 35 36 35 33 34 32 36 32
2 4 3 2 6 5 5 8 10 5 5 4 5 5 12 12 11 11 10 15 17 19 21 23 27 26 28 27 35 33 33 32 32 31 31 32 32 30 33 33 34 34 35 37
1 2 2 2 9 6 7 3 8 7 6 4 5 3 2 9 10 13 17 18 19 21 22 25 28 26 26 27 26 33 32 30 31 33 33 31 29 31 29 29 29 32 34 37
4 3 3 7 11 3 2 1 7 7 7 9 6 4 4 6 11 17 17 18 18 18 20 24 28 25 25 27 28 25 28 30 30 27 27 29 28 30 31 30 30 31 32 37
2 2 1 12 2 2 5 5 7 5 7 10 8 8 8 6 7 13 15 17 18 17 20 24 26 23 22 24 25 23 25 29 30 29 26 28 30 30 32 30 29 29 28 29
4 2 3 6 9 7 5 4 2 6 7 8 7 7 6 6 8 12 15 16 18 19 20 24 26 26 22 23 22 20 22 25 32 31 32 29 30 31 30 29 26 25 25 26
3 3 5 5 7 6 6 6 6 7 7 7 8 7 7 7 9 12 16 18 18 18 19 21 25 23 21 22 23 21 22 25 24 29 29 31 29 28 29 30 25 24 25 25
4 6 8 5 5 7 8 8 10 10 8 7 8 7 7 6 10 11 13 14 15 15 15 18 22 25 26 25 23 21 21 21 22 21 27 27 25 24 26 30 29 26 25 24
3 8 3 5 6 7 8 7 7 9 8 10 9 6 7 7 8 9 11 12 13 14 14 17 21 24 25 24 21 20 19 19 18 18 24 25 25 22 19 19 23 24 25 25
4 3 6 10 7 6 9 7 11 12 12 9 9 11 9 9 8 9 9 10 11 12 14 18 22 24 25 23 20 21 18 18 21 22 22 22 22 21 21 19 18 20 22 22
12 12 7 7 4 9 15 14 15 14 13 12 11 10 9 9 8 9 10 10 11 14 17 19 21 23 23 21 20 21 21 21 21 19 18 19 20 18 17 19 21 23 22 21
3 4 6 13 14 10 14 14 9 7 9 9 9 8 8 8 8 8 9 9 11 14 19 21 20 21 21 21 20 20 20 20 19 19 17 17 17 17 17 18 19 20 23 23
8 10 10 11 10 9 9 7 7 6 7 7 7 7 7 8 9 8 7 12 14 16 19 21 20 20 19 20 20 19 19 17 17 17 17 15 15 16 17 17 18 19 21 21
10 6 7 8 8 7 5 6 8 8 8 8 8 7 6 7 7 8 9 10 12 12 16 18 17 16 17 17 18 18 17 17 16 15 16 14 11 12 13 14 15 15 16 16
6 6 10 10 10 8 7 9 11 12 11 9 8 7 7 6 6 4 6 8 10 11 15 17 16 15 15 16 17 17 16 16 15 14 13 12 11 9 10 11 11 12 12 13
9 12 14 14 15 14 13 13 12 12 11 11 10 9 7 5 2 1 1 5 11 12 15 17 16 14 14 15 16 16 16 16 15 15 13 11 9 9 9 10 10 10 10 11
12 15 17 16 16 16 15 14 14 13 11 10 10 9 6 3 1 2 1 5 7 9 12 14 14 13 14 15 15 16 15 15 15 14 13 12 10 9 8 9 9 9 8 8
13 17 18 18 16 14 16 17 16 14 12 9 7 6 2 0 1 1 3 7 7 10 11 10 12 13 13 13 15 15 14 14 13 12 12 12 11 11 9 9 8 8 8 7
16 17 19 19 18 17 16 14 12 12 10 8 5 4 3 1 1 3 5 7 8 8 9 8 8 11 12 11 13 15 14 12 12 11 11 12 11 11 10 9 9 9 9 8
19 20 19 19 20 18 16 12 10 8 7 5 4 3 3 2 3 3 5 6 7 7 7 7 9 10 11 12 12 15 13 12 12 11 10 12 11 10 9 9 8 9 10 10
18 18 18 17 17 16 14 13 10 7 6 5 6 6 7 8 8 7 6 7 8 8 9 10 11 12 13 14 14 14 14 13 12 13 14 13 13 13 12 10 9 9 9 10
19 19 20 19 17 15 12 11 9 8 7 8 9 11 13 14 16 13 10 9 9 10 11 11 12 13 14 15 14 15 15 15 14 14 14 14 14 14 13 10 10 10 10 9
20 20 21 18 15 13 12 10 8 6 7 9 10 8 9 11 13 15 13 11 10 11 12 13 13 15 16 17 17 17 16 16 16 17 17 16 16 15 14 13 12 12 11 10
16 16 15 13 11 10 10 9 7 8 8 10 10 8 8 9 9 8 10 11 12 13 14 14 15 17 18 20 20 19 18 17 17 17 17 18 18 17 16 16 15 14 13 13

GFSNGP_925_spd_123.txt.gz
Wind_Speed
7 11 16 15 17 11 7 4 4 6 6 8 11 11 12 11 13 18 20 20 20 19 21 27 27 29 30 32 33 29 31 33 33 32 31 33 35 35 33 35 32 29 24 18
2 4 8 16 17 9 13 15 12 11 8 6 7 8 11 14 15 16 18 18 18 18 25 25 27 27 32 32 30 28 31 31 31 31 33 33 34 35 34 36 35 37 35 32
0 5 3 5 10 11 14 14 4 4 4 6 8 11 13 12 13 15 15 15 15 15 20 22 24 25 28 29 28 32 32 32 32 32 33 35 34 33 34 33 34 36 36 34
2 3 3 3 4 11 15 11 9 9 7 8 11 10 11 12 12 13 13 14 15 19 21 22 23 26 26 31 33 32 31 30 32 32 31 32 32 32 33 33 33 34 35 36
2 3 3 4 3 3 4 7 8 3 8 9 9 6 12 12 11 11 12 15 17 18 19 20 23 24 26 28 28 30 31 30 30 30 31 32 32 31 30 29 29 30 33 37
2 3 4 3 6 5 5 3 6 4 1 1 7 1 3 9 12 12 14 16 17 19 20 23 23 23 25 26 28 31 31 29 28 28 31 30 29 29 27 27 27 27 30 33
3 2 2 6 9 3 2 3 6 6 7 4 5 5 5 7 11 12 13 17 16 18 20 23 24 23 27 27 26 25 27 28 31 31 29 30 28 29 28 27 27 28 27 30
0 1 2 8 1 1 6 8 7 7 9 12 11 9 8 8 10 13 15 16 17 17 20 22 23 22 23 25 22 22 23 28 28 28 27 25 26 26 25 27 27 27 28 28
2 2 3 4 8 6 5 8 6 8 8 10 9 8 7 7 11 13 15 14 14 17 18 22 23 23 23 23 22 22 24 24 24 24 24 23 24 25 25 25 25 24 24 25
4 3 4 6 7 6 7 10 10 10 9 9 10 8 8 7 9 10 11 13 14 15 18 18 19 20 20 21 20 21 22 22 21 23 21 21 20 21 24 25 23 23 23 23
3 7 6 3 5 9 10 12 12 12 11 11 11 9 9 8 9 9 9 11 12 13 15 17 18 20 20 20 21 20 19 20 20 19 20 19 17 18 18 22 24 22 23 21
3 9 3 5 8 8 9 9 9 11 11 12 12 11 10 10 9 9 10 10 12 14 15 16 17 18 20 20 20 19 18 19 18 17 18 17 16 14 17 17 19 22 22 23
2 6 4 11 8 6 9 8 10 12 12 11 12 12 11 10 9 10 10 12 14 15 15 15 17 19 19 18 18 18 17 17 17 17 17 17 16 16 16 15 19 22 24 22
12 13 8 9 5 9 13 13 13 13 12 11 11 9 9 8 8 9 9 9 10 12 14 14 14 17 19 17 17 18 15 18 15 14 14 14 14 14 14 15 16 18 20 23
5 2 7 13 15 12 13 14 10 8 10 9 8 8 7 6 6 7 7 7 9 11 13 13 14 17 17 17 15 16 15 15 14 13 12 12 11 12 13 14 15 16 17 20
8 10 12 14 13 12 12 10 9 8 9 9 8 7 7 7 7 4 4 7 7 10 11 13 13 13 14 15 14 13 13 15 15 12 12 11 11 12 13 13 14 15 17 18
13 8 9 11 12 12 11 10 9 11 11 10 8 8 8 7 5 4 5 7 7 9 11 11 12 12 13 14 15 14 13 13 15 12 12 11 10 10 11 11 12 12 12 15
6 10 13 12 13 11 10 11 12 12 11 10 9 9 8 7 5 4 3 4 5 6 10 11 10 10 11 12 14 13 13 12 12 12 11 11 10 9 10 10 10 10 10 11
9 12 13 14 15 14 13 12 12 12 13 11 9 8 9 7 4 3 3 1 3 4 7 9 9 9 11 12 13 12 12 12 12 12 11 12 10 10 9 10 9 9 8 9
11 12 13 14 13 14 14 13 16 15 12 11 11 10 8 6 3 2 3 2 2 3 5 7 8 9 10 11 13 11 12 12 11 11 11 11 11 11 10 10 10 9 8 8
12 14 16 17 16 16 17 19 19 17 15 13 12 10 6 5 5 3 3 3 2 3 5 5 6 8 10 11 11 13 11 10 10 10 10 11 11 11 11 10 10 10 9 9
14 15 18 20 19 17 17 17 15 16 15 13 10 9 7 5 5 6 5 4 3 3 4 5 6 7 9 10 11 12 12 11 10 10 10 11 11 11 12 11 11 10 10 9
16 19 20 21 21 20 18 16 15 15 14 13 10 8 8 7 6 6 4 3 3 4 4 6 7 8 10 11 11 12 12 12 12 11 12 12 11 11 12 11 11 11 10 10
18 18 18 17 19 18 14 15 15 13 11 10 9 8 8 8 10 11 10 8 6 6 6 7 8 9 11 12 12 13 13 13 13 13 13 13 13 13 13 12 11 10 11 12
19 19 19 20 16 12 13 15 13 12 12 10 8 8 9 11 13 12 10 10 8 9 9 8 9 10 11 13 14 15 15 15 15 15 15 15 15 14 14 14 13 12 13 13
17 15 16 19 14 14 14 15 11 11 10 8 7 6 5 7 9 10 11 11 11 11 11 11 11 12 13 14 15 17 18 18 17 16 16 16 16 16 15 15 15 14 14 13
12 14 12 11 10 14 15 13 10 9 10 9 7 5 5 5 6 7 7 7 10 12 13 13 14 15 14 15 16 18 19 19 17 17 16 16 17 18 17 16 16 16 14 14

GFSNGP_925_spd_126.txt.gz
Wind_Speed
12 9 12 10 12 10 4 4 2 7 6 6 8 9 10 11 12 15 17 19 19 19 23 28 33 31 31 30 31 32 27 27 27 25 27 29 30 28 30 33 34 34 33 34
8 7 5 11 13 8 13 14 13 12 7 5 6 7 9 11 12 13 14 16 17 19 25 28 29 29 32 30 29 25 26 27 26 27 28 27 28 29 29 30 32 33 34 33
4 4 5 2 7 8 11 10 4 4 6 6 6 8 10 11 11 12 14 15 16 18 22 22 24 23 24 26 25 26 26 28 28 27 27 28 28 28 29 30 30 31 33 33
2 6 4 6 7 10 12 9 9 10 9 7 8 9 10 10 10 11 12 13 16 20 21 22 22 23 23 25 27 28 29 28 27 27 27 28 28 28 28 28 29 30 32 34
3 1 6 7 5 3 2 4 4 5 8 8 9 6 11 10 9 9 11 13 14 15 16 18 20 21 22 24 26 29 28 30 31 31 29 29 30 28 27 27 28 30 31 33
4 4 6 6 4 2 3 4 3 1 4 9 9 3 4 7 8 9 11 13 14 15 16 18 19 20 23 25 27 26 28 27 27 26 28 28 28 28 25 26 27 24 27 32
3 2 4 3 2 4 5 4 5 6 5 4 5 6 6 4 7 8 9 13 12 14 16 18 18 19 22 23 23 22 22 24 26 27 26 26 25 27 27 25 25 26 25 27
2 3 4 2 4 4 8 9 9 9 10 13 12 9 8 5 5 8 10 12 13 14 16 18 20 19 20 23 21 21 21 22 24 24 25 24 24 26 26 26 25 24 24 24
4 4 5 6 9 10 9 11 10 11 10 10 10 8 7 6 8 9 11 11 12 13 15 18 20 20 22 23 22 22 22 24 24 25 24 24 26 26 27 26 25 25 24 25
5 4 6 7 7 7 8 10 10 10 10 8 9 8 8 7 8 9 10 12 11 13 15 17 18 19 19 20 20 19 21 21 20 21 21 22 21 23 23 26 26 25 25 24
4 6 7 4 7 10 11 11 11 10 9 9 9 8 8 8 8 8 9 10 11 12 13 14 15 16 18 19 20 19 19 19 20 19 20 19 18 17 19 19 22 21 22 21
2 12 2 12 11 11 11 11 10 10 10 9 9 9 10 9 8 8 8 9 10 11 11 13 14 15 16 18 18 18 17 17 18 17 17 18 17 15 16 17 18 20 20 20
4 11 8 14 12 11 12 11 12 12 12 11 10 9 9 10 9 8 8 9 9 10 11 11 12 14 16 16 16 16 14 16 15 16 16 16 16 16 16 15 13 16 21 21
13 15 13 16 8 13 15 14 14 13 13 12 12 10 10 10 8 7 7 7 7 8 10 10 10 11 13 13 13 13 12 13 13 14 14 14 14 15 15 17 18 19 18 20
13 2 10 14 19 16 17 17 13 11 13 12 11 10 10 9 8 6 5 5 6 8 9 9 9 11 13 13 12 12 13 13 13 12 12 12 12 12 13 14 15 16 18 19
9 11 15 15 15 15 15 13 12 11 13 12 11 10 9 9 7 5 5 6 5 6 7 8 8 10 11 12 12 11 11 11 12 11 12 12 11 12 13 13 14 14 15 18
13 12 13 14 14 14 13 12 12 13 14 12 11 10 10 9 7 5 3 3 4 5 5 6 7 9 10 10 11 10 11 11 11 11 11 11 11 12 12 12 13 13 13 11
9 9 12 13 13 13 11 12 12 13 13 13 12 11 10 7 4 5 3 1 1 2 3 6 6 7 8 9 10 10 10 11 11 11 11 12 12 12 12 13 13 13 13 13
9 11 12 14 15 14 14 13 13 13 14 14 13 11 9 8 6 4 3 2 2 4 2 5 6 6 7 9 9 9 10 10 11 10 11 11 11 12 12 12 13 13 13 13
10 11 12 13 14 15 15 13 15 14 13 14 13 12 9 7 5 3 5 5 5 4 4 4 4 4 5 7 8 8 9 10 10 10 10 11 11 12 12 12 12 12 13 13
12 13 13 15 14 14 15 17 19 16 16 15 12 11 8 6 7 6 5 7 4 5 4 4 4 4 5 7 7 8 9 10 10 10 10 11 12 12 12 12 12 12 12 12
13 13 13 14 14 13 15 16 16 17 16 14 11 10 8 6 7 9 10 8 3 6 5 5 6 6 6 8 8 9 9 10 10 10 10 11 11 12 12 12 13 13 12 12
12 13 14 15 15 15 14 13 15 15 14 13 11 10 9 6 7 8 8 8 8 8 7 7 8 9 9 9 9 10 11 12 12 12 12 12 12 12 13 13 13 13 12 12
13 14 14 13 15 16 14 12 12 12 11 10 10 10 8 7 8 10 11 10 11 10 9 9 10 10 10 9 11 12 13 14 14 14 14 13 13 13 13 13 13 13 13 12
13 14 14 15 15 13 13 14 12 10 10 9 9 10 11 10 10 8 8 10 12 12 11 11 12 12 11 11 13 13 14 15 16 17 17 16 15 14 14 14 14 14 14 14
14 13 14 14 12 13 13 15 12 11 11 10 9 8 8 8 8 8 8 9 10 12 12 12 11 11 12 14 14 15 15 16 17 17 16 16 16 15 15 16 16 15 15 14
11 11 12 12 10 12 12 13 11 10 11 9 7 6 6 6 5 5 6 7 8 9 11 12 13 14 14 14 13 14 15 17 16 16 16 16 16 16 16 16 16 15 15 14

GFSNGP_925_spd_129.txt.gz
Wind_Speed
7 8 5 3 7 10 4 3 3 7 6 4 6 7 9 11 11 13 15 17 18 18 23 29 31 33 33 34 34 34 36 36 37 37 36 39 36 33 36 38 35 35 31 37
7 7 5 6 6 2 8 10 9 12 7 5 5 5 8 10 11 12 13 15 16 18 24 26 29 31 35 35 39 36 39 35 34 36 35 34 27 29 30 30 30 30 33 31
3 11 8 5 3 6 6 7 3 4 7 7 6 7 8 9 10 12 13 14 15 17 22 24 27 29 31 32 33 33 30 34 34 31 29 27 26 28 28 27 27 30 31 30
5 9 5 6 7 7 9 7 10 13 9 7 8 7 7 8 8 10 11 12 14 17 20 21 23 25 25 28 31 33 32 31 31 28 28 27 27 29 27 27 27 27 29 29
4 7 6 8 8 7 5 4 3 8 10 9 9 9 9 8 7 7 9 11 13 13 13 18 21 21 24 27 27 28 30 28 27 28 27 27 27 26 25 25 25 25 26 30
4 5 5 10 11 4 3 6 8 9 11 10 10 5 4 6 6 7 9 9 12 13 15 16 18 19 20 21 22 22 21 24 24 25 26 26 26 28 24 23 23 24 25 29
7 6 5 7 11 7 4 5 8 8 9 12 8 5 9 7 5 3 4 9 10 13 16 17 17 18 19 20 19 19 19 19 21 21 21 23 23 24 25 22 23 24 24 24
3 4 4 6 9 4 7 12 11 10 10 13 14 12 10 6 6 5 6 8 10 12 14 16 17 17 19 21 20 19 19 19 20 18 20 20 21 22 23 24 23 24 25 24
5 3 4 3 4 9 10 11 10 12 13 14 14 12 10 9 7 6 7 8 9 11 12 15 16 17 18 20 19 18 18 20 20 22 21 20 23 24 25 27 26 25 26 25
7 4 6 7 6 8 10 11 11 11 12 12 13 12 10 9 8 8 8 9 9 10 12 13 14 16 17 17 18 17 18 20 20 20 21 21 20 22 23 25 25 25 25 25
4 7 8 8 9 9 11 11 11 10 10 11 12 11 10 8 8 8 8 8 9 10 11 11 13 15 16 18 18 17 18 18 19 18 19 20 18 17 20 17 20 22 24 24
2 13 5 13 12 13 13 11 11 11 11 11 12 11 11 10 8 7 7 7 9 9 9 11 11 13 15 17 17 17 16 17 17 17 18 19 19 18 14 16 14 16 20 21
4 14 9 15 14 14 13 12 12 12 12 10 12 12 11 10 8 7 7 7 8 9 8 9 10 11 13 15 15 16 16 16 16 17 18 18 18 18 19 18 16 14 17 21
13 12 14 15 13 14 15 15 14 13 13 12 13 11 11 10 8 7 7 7 7 7 8 8 9 11 13 14 13 14 13 14 15 16 16 17 17 18 17 17 19 20 18 19
14 5 13 12 16 15 17 17 13 12 13 13 12 11 11 10 8 7 6 5 5 6 8 8 8 11 12 13 12 12 13 13 14 13 13 14 14 15 15 16 17 18 20 19
11 9 15 14 15 14 13 13 12 12 14 14 13 11 10 9 9 7 6 6 4 5 6 6 6 8 9 11 12 10 11 11 13 12 13 13 14 15 16 17 17 17 19 15
13 13 15 15 15 15 13 13 12 14 14 14 13 13 12 10 9 7 6 4 3 2 2 4 5 7 8 10 11 11 11 12 12 12 13 14 14 15 16 17 17 17 17 12
11 12 14 15 14 14 13 14 15 16 15 14 14 13 11 9 6 7 6 4 2 1 2 5 5 6 7 10 10 9 11 12 13 13 13 14 15 15 15 16 16 17 17 17
10 11 12 15 17 16 16 15 16 16 16 16 16 13 11 9 8 8 7 5 1 3 3 4 4 4 6 7 10 8 10 12 12 12 13 14 14 14 16 16 16 17 16 17
10 13 13 15 15 16 16 15 17 16 15 15 14 13 11 10 9 8 7 4 3 2 3 3 3 4 5 6 9 8 10 11 12 13 13 14 14 15 15 15 16 16 16 16
11 12 12 13 11 14 16 18 18 17 16 16 15 13 11 10 9 8 5 4 5 6 4 4 4 5 6 6 10 9 10 12 12 13 14 14 15 15 16 16 16 16 17 16
13 13 14 14 13 13 12 15 14 15 15 15 11 12 11 9 8 7 8 6 1 5 4 6 6 7 7 11 10 11 12 13 14 14 14 14 15 16 16 16 17 17 17 16
11 13 14 14 14 14 14 13 13 15 15 15 14 11 11 7 8 7 6 7 7 8 6 7 8 10 12 9 10 12 13 14 15 15 16 17 16 16 17 17 17 17 17 16
11 12 13 13 14 15 14 12 12 11 11 11 11 12 9 6 5 6 6 5 8 9 10 10 7 9 12 10 13 13 13 15 16 17 18 18 18 17 17 17 18 18 16 16
11 11 13 13 13 11 12 13 12 10 10 9 9 9 9 6 5 4 4 6 7 8 11 11 14 13 11 13 15 15 16 16 16 18 20 21 20 19 18 20 18 19 19 19
12 11 11 12 9 10 11 13 11 11 11 10 9 8 7 6 5 5 6 6 7 9 10 10 11 11 11 14 16 18 17 17 17 18 19 20 20 21 20 19 20 19 19 18
9 8 9 10 9 9 11 12 11 10 10 8 6 8 6 4 3 4 5 6 7 7 9 9 11 13 15 16 16 17 17 16 18 18 20 20 20 20 19 19 20 19 19 19